DMSP 5D-2 F11 DEB

Satellite information

Favourite Embed

Satellite Type and Status

DEBRISIN ORBIT

Key statistics

Satellite DMSP 5D-2 F11 DEB at a glance.

Uptime

12434

Days in orbit

Revolutions

≈ 14.5

Per day

Orbit

SSO

Sun Synchronous Orbit

Inclination

98.6

Latest

Satellite identification and parameters

Extended collection of information and parameters for DMSP 5D-2 F11 DEB.

Object identification

Identified? True

Debris? True

Object name: DMSP 5D-2 F11 DEB

International designator: 1991-082AY

Object number (NORAD): 28335

Object ID (CCSDS): 28335

Country: UNITED STATES OF AMERICA (US)

Current information (Y/N): Y

RCS size: SMALL

Orbital parameters

Period: 99.584 minutes

Inclination: 98.5768 deg

SMA: 7116.806 km

Apoapsis: 745.779 km

Periapsis: 731.564 km

RAAN: 48.7216 deg

Eccentricy: 0.00099866

Argument of periapsis: 116.573 deg

Mean anomaly: 243.6486 deg

Mean motion: 14.4602247 rev/day

Mean motion (dot): 0.00010292 rev/day2

B* drag term: 0.0028948999 1/REarth

Two-line elements (TLE)

Creation date: Dec. 6, 2025, 5:59 p.m.

Reference frame: TEME

Reference center: EARTH

Epoch: Dec. 6, 2025, 11:15 a.m. UTC

TLE line 0: 0 DMSP 5D-2 F11 DEB

TLE line 1: 1 28335U 91082AY 25340.46904761 .00010292 00000-0 28949-2 0 9990

TLE line 2: 2 28335 98.5768 48.7216 0009987 116.5730 243.6486 14.46022470647134

Live tracking on map

Real-time ground track for satellite DMSP 5D-2 F11 DEB.

In-orbit conjunctions

A list of the most updated potential collisions computed for object DMSP 5D-2 F11 DEB.

Target Orbit TCA Probability of collision Miss distance Type
COSMOS 1763 LEO 2025-09-07 03:32:13 0.0001447053 549.0 (m) PAYLOAD
COSMOS 2251 DEB LEO 2025-08-22 12:50:42 0.0001372439 333.0 (m) DEBRIS
CZ-6A DEB LEO 2025-02-20 06:31:55 0.001288573 126.0 (m) DEBRIS
CZ-6A DEB LEO 2024-09-19 15:21:11 0.0003365833 564.0 (m) DEBRIS

Associated space launch

Military meteorological satellite

DMSP 5D-2 F11 DEB was lifted into orbit during the mission ‘Atlas E | DMSP-5D2 F11’, on board a Atlas E space rocket.

The launch took place on Nov. 28, 1991, 1:23 p.m. from Space Launch Complex 3W.

For more information about the launch, click the button.

Launch to space Atlas E | DMSP-5D2 F11
Atlas E | DMSP-5D2 F11

Agency: N/A

Status: Launch Successful

Launch date: Nov. 28, 1991, 1:23 p.m. UTC

Rocket: Atlas E

Launch pad: Space Launch Complex 3W

Location: Vandenberg SFB, CA, USA

...

Latest news about this satellite

There are no fresh news available about this satellite. Check back as we update our databases every day.


Newsletter sign-up

Weekly statistics, charts and insights to help you stay on top of the space industry.